M I D A S
Marine Information and Data Acquisition System
Tripno 1660 of the Zeeleeuw from 2009-03-19 07:30:53 to 2009-03-19 13:03:15
Back to CruiseResearch ActivitiesStationsMapUnderway DataData graphs

EquipmentUnitsComments
TimeDGPSUTC
LatitudeDGPSDM.mWGS84
LongitudeDGPSDM.mWGS84
SpeedMeteo Stationm/sRelative wind speed
DirectionMeteo StationdegRelative wind direction
TemperatureMeteo Stationdeg CelciusAir temperature
PressureMeteo StationPaAtmospheric pressure
HumidityMeteo Station%Relative humidity
Missing or incorrect values are displayed as -999
Metereological data collected by the RV Zeeleeuw from 2009-03-19 07:24:05 to 2009-03-19 13:13:15
Time Latitude Longitude Speed Direction Temperature Pressure Humidity
2009-03-19 07:25 51°13.675 2°55.904 3 83 7 102660 86
2009-03-19 07:26 51°13.692 2°55.826 3.6 79 7 102660 86
2009-03-19 07:27 51°13.702 2°55.763 3.3 281 7 102660 85
2009-03-19 07:28 51°13.706 2°55.755 6 286 7 102660 86
2009-03-19 07:29 51°13.708 2°55.762 2 287 7.1 102650 87
2009-03-19 07:30 51°13.707 2°55.758 4.9 352 7.1 102660 87
2009-03-19 07:31 51°13.735 2°55.727 5.8 282 7.1 102660 86
2009-03-19 07:32 51°13.788 2°55.671 4.3 354 7 102660 86
2009-03-19 07:33 51°13.853 2°55.629 5.4 284 7 102660 86
2009-03-19 07:34 51°13.904 2°55.636 6.4 281 7 102660 86
2009-03-19 07:35 51°13.941 2°55.63 5 280 6.9 102660 86
2009-03-19 07:36 51°13.964 2°55.613 5.8 355 6.9 102660 86
2009-03-19 07:37 51°14.035 2°55.539 5.4 348 6.9 102660 87
2009-03-19 07:38 51°14.159 2°55.4 8.3 284 6.9 102660 87
2009-03-19 07:39 51°14.282 2°55.218 6.9 351 6.8 102660 87
2009-03-19 07:40 51°14.383 2°54.977 8.4 280 6.8 102660 87
2009-03-19 07:41 51°14.513 2°54.727 9.9 349 6.8 102650 87
2009-03-19 07:42 51°14.671 2°54.521 9.5 280 6.8 102640 86
2009-03-19 07:43 51°14.84 2°54.348 10.2 280 6.7 102640 85
2009-03-19 07:44 51°15.012 2°54.176 9 279 6.7 102640 84
2009-03-19 07:45 51°15.183 2°54.018 10.8 283 6.7 102640 84
2009-03-19 07:46 51°15.361 2°53.864 9.9 282 6.8 102640 83
2009-03-19 07:47 51°15.54 2°53.711 11.1 281 6.8 102650 81
2009-03-19 07:48 51°15.717 2°53.558 10.7 280 6.8 102650 83
2009-03-19 07:49 51°15.895 2°53.405 10 280 6.8 102640 81
2009-03-19 07:50 51°16.074 2°53.253 9.6 347 6.8 102650 83
2009-03-19 07:51 51°16.257 2°53.108 10 281 6.8 102650 83
2009-03-19 07:52 51°16.44 2°52.971 12.1 284 6.8 102640 83
2009-03-19 07:53 51°16.628 2°52.843 10.1 281 6.8 102650 83
2009-03-19 07:54 51°16.816 2°52.722 11.8 281 6.8 102650 85
2009-03-19 07:55 51°17.005 2°52.604 10.5 346 6.8 102660 85
2009-03-19 07:56 51°17.202 2°52.52 10.1 281 6.8 102660 86
2009-03-19 07:57 51°17.404 2°52.457 12.3 284 6.8 102660 86
2009-03-19 07:58 51°17.608 2°52.407 10.9 278 6.8 102670 87
2009-03-19 07:59 51°17.814 2°52.378 13 283 6.8 102660 86
2009-03-19 08:00 51°18.022 2°52.383 11.2 281 6.8 102670 86
2009-03-19 08:01 51°18.229 2°52.388 11.6 283 6.8 102670 86
2009-03-19 08:02 51°18.437 2°52.384 11.6 287 6.9 102670 86
2009-03-19 08:03 51°18.644 2°52.373 11.1 278 6.9 102670 85
2009-03-19 08:04 51°18.85 2°52.36 13 286 6.9 102680 85
2009-03-19 08:05 51°19.057 2°52.348 11.4 281 6.9 102680 84
2009-03-19 08:06 51°19.266 2°52.336 10.7 278 6.9 102680 85
2009-03-19 08:07 51°19.475 2°52.321 11.3 283 6.9 102680 85
2009-03-19 08:08 51°19.688 2°52.315 10.5 284 6.9 102680 86
2009-03-19 08:09 51°19.894 2°52.317 12.1 280 6.9 102690 84
2009-03-19 08:10 51°20.102 2°52.332 11.2 279 6.9 102690 85
2009-03-19 08:11 51°20.31 2°52.347 13.6 281 6.8 102690 86
2009-03-19 08:12 51°20.518 2°52.357 10.6 284 6.9 102700 87
2009-03-19 08:13 51°20.726 2°52.365 11.8 281 6.8 102700 84
2009-03-19 08:14 51°20.936 2°52.383 14.2 284 6.8 102700 83
2009-03-19 08:15 51°21.144 2°52.416 11.9 285 6.9 102700 84
2009-03-19 08:16 51°21.351 2°52.455 13.1 286 6.9 102710 83
2009-03-19 08:17 51°21.559 2°52.497 14.2 287 6.9 102710 82
2009-03-19 08:18 51°21.767 2°52.541 12 281 6.9 102710 83
2009-03-19 08:19 51°21.973 2°52.592 12.5 285 6.9 102710 83
2009-03-19 08:20 51°22.179 2°52.646 13.3 279 6.8 102700 79
2009-03-19 08:21 51°22.386 2°52.691 12.1 283 6.9 102710 80
2009-03-19 08:22 51°22.592 2°52.743 13.6 284 6.9 102710 79
2009-03-19 08:23 51°22.797 2°52.799 11.1 279 6.9 102720 81
2009-03-19 08:24 51°23.004 2°52.862 13.8 279 6.9 102710 80
2009-03-19 08:25 51°23.21 2°52.916 12.2 283 6.9 102710 79
2009-03-19 08:26 51°23.416 2°52.982 13.3 281 6.9 102710 79
2009-03-19 08:27 51°23.623 2°53.049 14 285 6.9 102710 79
2009-03-19 08:28 51°23.834 2°53.112 13.4 283 6.9 102710 79
2009-03-19 08:29 51°24.037 2°53.175 13.6 277 6.9 102720 80
2009-03-19 08:30 51°24.244 2°53.24 12.6 282 6.9 102710 80
2009-03-19 08:31 51°24.451 2°53.296 11.5 286 6.9 102710 80
2009-03-19 08:32 51°24.657 2°53.348 13.3 283 6.9 102710 80
2009-03-19 08:33 51°24.863 2°53.405 12.3 281 6.9 102710 81
2009-03-19 08:34 51°25.068 2°53.471 13.9 281 6.9 102720 81
2009-03-19 08:35 51°25.274 2°53.532 12.5 278 6.8 102720 81
2009-03-19 08:36 51°25.48 2°53.598 14.4 282 6.8 102720 82
2009-03-19 08:37 51°25.686 2°53.655 12.1 282 6.8 102730 82
2009-03-19 08:38 51°25.892 2°53.718 12.4 283 6.8 102720 82
2009-03-19 08:39 51°26.097 2°53.78 11.1 278 6.8 102730 82
2009-03-19 08:40 51°26.302 2°53.853 12.2 287 6.8 102730 83
2009-03-19 08:41 51°26.507 2°53.918 10.9 279 6.8 102730 82
2009-03-19 08:42 51°26.713 2°53.977 13 282 6.8 102740 83
2009-03-19 08:43 51°26.919 2°54.037 11.6 284 6.7 102730 82
2009-03-19 08:44 51°27.125 2°54.095 12.9 277 6.7 102720 82
2009-03-19 08:45 51°27.33 2°54.162 12.8 281 6.7 102720 83
2009-03-19 08:46 51°27.537 2°54.225 11.4 282 6.7 102730 82
2009-03-19 08:47 51°27.745 2°54.284 13.2 280 6.8 102730 83
2009-03-19 08:48 51°27.954 2°54.34 11.9 287 6.7 102730 83
2009-03-19 08:49 51°28.167 2°54.392 13.1 286 6.7 102740 83
2009-03-19 08:50 51°28.371 2°54.437 13.9 283 6.7 102740 83
2009-03-19 08:51 51°28.578 2°54.486 12.1 281 6.7 102730 84
2009-03-19 08:52 51°28.785 2°54.542 13.3 286 6.6 102730 83
2009-03-19 08:53 51°28.991 2°54.609 13.1 280 6.6 102740 84
2009-03-19 08:54 51°29.197 2°54.662 11.3 281 6.6 102740 83
2009-03-19 08:55 51°29.403 2°54.713 14.1 279 6.6 102730 84
2009-03-19 08:56 51°29.608 2°54.774 13.4 277 6.6 102730 84
2009-03-19 08:57 51°29.815 2°54.837 12.1 286 6.6 102740 84
2009-03-19 08:58 51°30.019 2°54.903 11.5 285 6.6 102740 85
2009-03-19 08:59 51°30.223 2°54.971 13.1 282 6.6 102740 85
2009-03-19 09:00 51°30.43 2°55.025 11.8 277 6.5 102740 84
2009-03-19 09:01 51°30.638 2°55.071 13.8 282 6.5 102740 85
2009-03-19 09:02 51°30.845 2°55.121 12.8 277 6.5 102730 85
2009-03-19 09:03 51°31.054 2°55.172 11.2 279 6.5 102740 85
2009-03-19 09:04 51°31.265 2°55.215 14 282 6.5 102740 85
2009-03-19 09:05 51°31.477 2°55.248 14 282 6.4 102740 85
2009-03-19 09:06 51°31.689 2°55.272 13.9 282 6.3 102740 91
2009-03-19 09:07 51°31.905 2°55.303 14.1 285 6.3 102740 91
2009-03-19 09:08 51°32.113 2°55.326 12.4 280 6.2 102740 90
2009-03-19 09:09 51°32.269 2°55.358 8.7 281 6.1 102760 91
2009-03-19 09:10 51°32.322 2°55.409 6.4 286 6.1 102770 92
2009-03-19 09:11 51°32.33 2°55.419 8.1 284 6.1 102770 91
2009-03-19 09:12 51°32.333 2°55.418 7.9 280 6.1 102790 91
2009-03-19 09:13 51°32.334 2°55.414 5 286 6.1 102780 92
2009-03-19 09:14 51°32.336 2°55.407 5.4 279 6.1 102780 92
2009-03-19 09:15 51°32.337 2°55.398 6.8 285 6 102790 91
2009-03-19 09:16 51°32.339 2°55.387 5.6 280 5.9 102780 91
2009-03-19 09:17 51°32.34 2°55.375 5.6 286 5.8 102790 91
2009-03-19 09:18 51°32.342 2°55.363 6.5 281 5.8 102790 91
2009-03-19 09:19 51°32.344 2°55.351 6 282 5.8 102790 91
2009-03-19 09:20 51°32.347 2°55.339 7.4 284 5.8 102790 91
2009-03-19 09:21 51°32.349 2°55.327 7.5 278 5.8 102790 87
2009-03-19 09:22 51°32.35 2°55.315 8.3 280 5.9 102790 87
2009-03-19 09:23 51°32.352 2°55.303 6.1 287 5.9 102790 87
2009-03-19 09:24 51°32.353 2°55.292 7.1 284 5.8 102790 87
2009-03-19 09:25 51°32.355 2°55.28 7.9 284 5.9 102790 88
2009-03-19 09:26 51°32.357 2°55.267 7.7 282 5.9 102790 87
2009-03-19 09:27 51°32.36 2°55.254 7.3 280 5.9 102800 87
2009-03-19 09:28 51°32.363 2°55.239 5.4 282 5.9 102800 87
2009-03-19 09:29 51°32.366 2°55.224 5.7 283 6 102800 86
2009-03-19 09:30 51°32.37 2°55.21 4.9 284 6 102800 87
2009-03-19 09:31 51°32.373 2°55.195 5.3 280 6 102800 86
2009-03-19 09:32 51°32.376 2°55.18 6.1 279 6 102800 86
2009-03-19 09:33 51°32.379 2°55.164 5.5 280 5.9 102800 87
2009-03-19 09:34 51°32.382 2°55.149 8 285 6 102800 90
2009-03-19 09:35 51°32.383 2°55.134 9.1 280 6 102800 93
2009-03-19 09:36 51°32.384 2°55.117 7.8 282 5.9 102800 93
2009-03-19 09:37 51°32.386 2°55.102 7.4 280 6 102810 93
2009-03-19 09:38 51°32.389 2°55.086 5.4 280 6 102810 94
2009-03-19 09:39 51°32.392 2°55.07 5 285 6.1 102810 92
2009-03-19 09:40 51°32.395 2°55.053 4.9 279 6.1 102820 91
2009-03-19 09:41 51°32.397 2°55.037 4.9 285 6.1 102820 91
2009-03-19 09:42 51°32.399 2°55.021 5.8 278 6.1 102820 92
2009-03-19 09:43 51°32.401 2°55.006 4.1 280 6.1 102820 92
2009-03-19 09:44 51°32.403 2°54.989 5 279 6.2 102820 91
2009-03-19 09:45 51°32.406 2°54.974 7.8 279 6.2 102820 92
2009-03-19 09:46 51°32.408 2°54.959 4.7 286 6.1 102810 92
2009-03-19 09:47 51°32.409 2°54.944 5.2 281 6.1 102820 91
2009-03-19 09:48 51°32.41 2°54.927 7.5 280 6.1 102820 91
2009-03-19 09:49 51°32.411 2°54.91 7.5 282 6 102820 91
2009-03-19 09:50 51°32.412 2°54.893 6.1 284 6 102820 90
2009-03-19 09:51 51°32.412 2°54.876 7 284 6.1 102820 90
2009-03-19 09:52 51°32.413 2°54.859 8.3 280 6 102810 90
2009-03-19 09:53 51°32.413 2°54.841 6.4 282 6 102820 90
2009-03-19 09:54 51°32.413 2°54.824 6 286 6.1 102820 87
2009-03-19 09:55 51°32.412 2°54.807 8.1 284 6.1 102820 86
2009-03-19 09:56 51°32.412 2°54.791 9.1 280 6.1 102810 86
2009-03-19 09:57 51°32.411 2°54.775 6.3 286 6 102820 86
2009-03-19 09:58 51°32.41 2°54.759 6.2 282 6.1 102820 86
2009-03-19 09:59 51°32.407 2°54.744 8.6 280 6.1 102810 85
2009-03-19 10:00 51°32.405 2°54.728 9.8 284 6.2 102820 86
2009-03-19 10:01 51°32.404 2°54.711 6.7 280 6.2 102820 85
2009-03-19 10:02 51°32.402 2°54.695 8 287 6.3 102820 86
2009-03-19 10:03 51°32.4 2°54.678 6.6 279 6.3 102820 86
2009-03-19 10:04 51°32.397 2°54.66 5.6 286 6.3 102820 85
2009-03-19 10:05 51°32.395 2°54.642 6 285 6.2 102820 86
2009-03-19 10:06 51°32.392 2°54.623 7.3 283 6.1 102820 85
2009-03-19 10:07 51°32.389 2°54.603 9.6 283 6.1 102830 85
2009-03-19 10:08 51°32.385 2°54.582 8.9 280 6 102830 84
2009-03-19 10:09 51°32.382 2°54.562 8.9 285 6 102830 85
2009-03-19 10:10 51°32.378 2°54.54 6.2 284 5.9 102840 84
2009-03-19 10:11 51°32.374 2°54.519 6.2 280 5.9 102840 86
2009-03-19 10:12 51°32.371 2°54.499 6 280 5.9 102840 85
2009-03-19 10:13 51°32.367 2°54.478 8.7 282 5.9 102840 85
2009-03-19 10:14 51°32.364 2°54.457 8.2 281 5.9 102850 85
2009-03-19 10:15 51°32.36 2°54.435 7.9 287 5.9 102840 85
2009-03-19 10:16 51°32.356 2°54.414 6.8 279 5.9 102850 86
2009-03-19 10:17 51°32.351 2°54.392 4.5 279 5.9 102850 85
2009-03-19 10:18 51°32.346 2°54.37 8.8 282 5.8 102840 85
2009-03-19 10:19 51°32.341 2°54.349 7.6 284 5.8 102840 85
2009-03-19 10:20 51°32.335 2°54.327 6.4 284 5.7 102840 86
2009-03-19 10:21 51°32.329 2°54.307 8 285 5.7 102840 86
2009-03-19 10:22 51°32.323 2°54.287 10 281 5.7 102840 86
2009-03-19 10:23 51°32.316 2°54.265 6.8 284 5.7 102840 86
2009-03-19 10:24 51°32.31 2°54.244 9.6 281 5.7 102840 86
2009-03-19 10:25 51°32.303 2°54.223 10 284 5.7 102850 86
2009-03-19 10:26 51°32.296 2°54.202 8.8 286 5.7 102850 86
2009-03-19 10:27 51°32.284 2°54.193 8.6 283 5.7 102840 86
2009-03-19 10:28 51°32.272 2°54.21 8.1 279 5.8 102840 87
2009-03-19 10:29 51°32.272 2°54.24 10.4 284 5.7 102840 87
2009-03-19 10:30 51°32.286 2°54.278 11.1 283 5.8 102840 86
2009-03-19 10:31 51°32.307 2°54.326 8.8 282 5.8 102840 87
2009-03-19 10:32 51°32.329 2°54.383 10.4 285 5.8 102840 86
2009-03-19 10:33 51°32.355 2°54.442 10.5 285 5.8 102850 87
2009-03-19 10:34 51°32.38 2°54.505 9.4 281 5.8 102850 87
2009-03-19 10:35 51°32.405 2°54.568 11.4 285 5.8 102850 87
2009-03-19 10:36 51°32.432 2°54.632 8.6 283 5.8 102850 86
2009-03-19 10:37 51°32.459 2°54.694 9 281 5.8 102850 87
2009-03-19 10:38 51°32.485 2°54.758 9.6 282 5.7 102850 86
2009-03-19 10:39 51°32.513 2°54.823 9.2 280 5.8 102850 87
2009-03-19 10:40 51°32.527 2°54.879 8.2 282 5.7 102860 87
2009-03-19 10:41 51°32.521 2°54.911 10.8 280 5.7 102850 87
2009-03-19 10:42 51°32.508 2°54.925 8 279 5.7 102850 87
2009-03-19 10:43 51°32.496 2°54.925 8.5 283 5.7 102860 86
2009-03-19 10:44 51°32.484 2°54.916 9.1 281 5.7 102860 87
2009-03-19 10:45 51°32.472 2°54.9 6.6 280 5.7 102860 87
2009-03-19 10:46 51°32.461 2°54.881 8.7 280 5.7 102860 87
2009-03-19 10:47 51°32.451 2°54.861 8.5 281 5.8 102870 87
2009-03-19 10:48 51°32.441 2°54.839 9.4 284 5.8 102870 88
2009-03-19 10:49 51°32.431 2°54.814 6.1 280 5.8 102870 88
2009-03-19 10:50 51°32.422 2°54.789 6.9 281 5.8 102870 86
2009-03-19 10:51 51°32.412 2°54.764 5.9 286 5.8 102870 87
2009-03-19 10:52 51°32.404 2°54.74 4.6 283 5.8 102880 87
2009-03-19 10:53 51°32.394 2°54.716 7.2 285 5.8 102870 87
2009-03-19 10:54 51°32.384 2°54.693 5.2 279 5.9 102880 87
2009-03-19 10:55 51°32.374 2°54.669 7.2 279 5.9 102870 87
2009-03-19 10:56 51°32.364 2°54.646 8 280 5.9 102880 87
2009-03-19 10:57 51°32.353 2°54.622 6.4 280 6 102880 87
2009-03-19 10:58 51°32.343 2°54.598 6.8 280 6 102880 87
2009-03-19 10:59 51°32.332 2°54.573 5.8 279 6 102880 87
2009-03-19 11:00 51°32.322 2°54.547 5.8 280 6.1 102880 86
2009-03-19 11:01 51°32.313 2°54.519 6.4 281 6.1 102880 86
2009-03-19 11:02 51°32.303 2°54.492 7.7 283 6.1 102880 92
2009-03-19 11:03 51°32.293 2°54.463 5.9 286 6.1 102880 92
2009-03-19 11:04 51°32.283 2°54.436 6.6 284 6.2 102880 88
2009-03-19 11:05 51°32.273 2°54.408 5.8 280 6.2 102890 93
2009-03-19 11:06 51°32.263 2°54.381 7.3 285 6.2 102900 93
2009-03-19 11:07 51°32.253 2°54.355 7 284 6.2 102890 93
2009-03-19 11:08 51°32.243 2°54.327 6.8 280 6.2 102890 93
2009-03-19 11:09 51°32.233 2°54.3 7.1 279 6.3 102890 93
2009-03-19 11:10 51°32.222 2°54.271 5.4 280 6.3 102890 92
2009-03-19 11:11 51°32.212 2°54.243 6.4 286 6.3 102890 92
2009-03-19 11:12 51°32.201 2°54.214 6.1 281 6.3 102890 92
2009-03-19 11:13 51°32.19 2°54.185 7.2 280 6.3 102890 89
2009-03-19 11:14 51°32.179 2°54.157 5.9 279 6.3 102890 89
2009-03-19 11:15 51°32.167 2°54.128 5.3 284 6.3 102890 90
2009-03-19 11:16 51°32.156 2°54.1 5.9 286 6.3 102890 87
2009-03-19 11:17 51°32.143 2°54.073 5.4 284 6.3 102890 87
2009-03-19 11:18 51°32.084 2°54.067 6.5 286 6.3 102890 88
2009-03-19 11:19 51°31.963 2°54.064 5.7 284 6.3 102890 91
2009-03-19 11:20 51°31.826 2°54.06 7.2 279 6.4 102890 89
2009-03-19 11:21 51°31.664 2°54.046 7.6 285 6.4 102890 90
2009-03-19 11:22 51°31.504 2°54.027 7.5 280 6.4 102890 91
2009-03-19 11:23 51°31.335 2°54.009 7.4 281 6.4 102890 88
2009-03-19 11:24 51°31.167 2°53.992 7.2 287 6.5 102890 86
2009-03-19 11:25 51°30.996 2°53.973 6 286 6.5 102900 86
2009-03-19 11:26 51°30.822 2°53.954 5.9 279 6.5 102890 86
2009-03-19 11:27 51°30.644 2°53.932 7.5 281 6.5 102890 86
2009-03-19 11:28 51°30.462 2°53.913 5.5 285 6.5 102900 86
2009-03-19 11:29 51°30.266 2°53.891 6.2 279 6.5 102890 86
2009-03-19 11:30 51°30.063 2°53.861 5.1 284 6.6 102900 85
2009-03-19 11:31 51°29.856 2°53.829 5.5 285 6.6 102890 86
2009-03-19 11:32 51°29.644 2°53.795 6.4 284 6.6 102900 86
2009-03-19 11:33 51°29.432 2°53.761 6.1 285 6.6 102900 86
2009-03-19 11:34 51°29.219 2°53.731 6.4 278 6.6 102890 85
2009-03-19 11:35 51°29.006 2°53.701 4.9 286 6.6 102900 85
2009-03-19 11:36 51°28.794 2°53.677 5.4 280 6.6 102900 86
2009-03-19 11:37 51°28.581 2°53.648 6 281 6.6 102890 85
2009-03-19 11:38 51°28.367 2°53.619 5.7 280 6.6 102890 86
2009-03-19 11:39 51°28.154 2°53.589 4.5 285 6.6 102890 86
2009-03-19 11:40 51°27.941 2°53.557 5.2 279 6.7 102890 86
2009-03-19 11:41 51°27.725 2°53.527 4.5 279 6.7 102890 85
2009-03-19 11:42 51°27.51 2°53.495 4.7 280 6.7 102890 86
2009-03-19 11:43 51°27.295 2°53.466 4.8 279 6.7 102890 86
2009-03-19 11:44 51°27.08 2°53.433 4.3 285 6.7 102890 85
2009-03-19 11:45 51°26.865 2°53.399 4.6 279 6.7 102880 85
2009-03-19 11:46 51°26.649 2°53.367 5.1 280 6.8 102880 86
2009-03-19 11:47 51°26.435 2°53.345 4.9 281 6.8 102880 86
2009-03-19 11:48 51°26.223 2°53.326 5 282 6.9 102880 85
2009-03-19 11:49 51°26.009 2°53.31 5.1 280 6.9 102880 85
2009-03-19 11:50 51°25.794 2°53.279 3.9 284 7 102880 85
2009-03-19 11:51 51°25.581 2°53.246 4.1 284 7 102870 85
2009-03-19 11:52 51°25.367 2°53.209 4.5 280 7 102880 85
2009-03-19 11:53 51°25.154 2°53.171 5.5 281 7 102880 85
2009-03-19 11:54 51°24.94 2°53.131 5.3 279 7 102880 85
2009-03-19 11:55 51°24.726 2°53.091 5 279 7.1 102880 85
2009-03-19 11:56 51°24.511 2°53.037 4.4 280 7.1 102880 85
2009-03-19 11:57 51°24.297 2°52.981 5.3 285 7.1 102880 84
2009-03-19 11:58 51°24.107 2°52.925 3.8 85 7.1 102880 85
2009-03-19 11:59 51°23.99 2°52.893 3.9 287 7 102870 84
2009-03-19 12:00 51°23.886 2°52.848 4.2 75 6.9 102880 84
2009-03-19 12:01 51°23.782 2°52.814 6.6 81 6.8 102870 84
2009-03-19 12:02 51°23.714 2°52.8 5.3 285 6.7 102860 84
2009-03-19 12:03 51°23.641 2°52.792 4.8 285 6.7 102870 85
2009-03-19 12:04 51°23.532 2°52.769 4.1 284 6.7 102870 85
2009-03-19 12:05 51°23.412 2°52.742 4.9 285 6.7 102870 85
2009-03-19 12:06 51°23.291 2°52.712 4.7 82 6.6 102880 85
2009-03-19 12:07 51°23.172 2°52.657 4.4 74 6.6 102870 85
2009-03-19 12:08 51°23.054 2°52.587 5 79 6.6 102880 85
2009-03-19 12:09 51°22.936 2°52.506 4.3 74 6.6 102880 86
2009-03-19 12:10 51°22.819 2°52.427 6.1 78 6.6 102870 86
2009-03-19 12:11 51°22.702 2°52.351 4.7 81 6.5 102870 85
2009-03-19 12:12 51°22.585 2°52.274 3.8 81 6.6 102870 86
2009-03-19 12:13 51°22.469 2°52.198 3.7 75 6.6 102860 85
2009-03-19 12:14 51°22.353 2°52.123 4.2 77 6.6 102870 86
2009-03-19 12:15 51°22.236 2°52.048 4.4 74 6.6 102870 86
2009-03-19 12:16 51°22.119 2°51.975 3.5 74 6.6 102860 86
2009-03-19 12:17 51°22.002 2°51.909 3.3 278 6.6 102860 86
2009-03-19 12:18 51°21.885 2°51.876 3.7 281 6.7 102860 86
2009-03-19 12:19 51°21.781 2°51.848 4.5 281 6.7 102860 86
2009-03-19 12:20 51°21.718 2°51.831 5.3 282 6.7 102850 86
2009-03-19 12:21 51°21.675 2°51.813 4.9 279 6.7 102850 85
2009-03-19 12:22 51°21.629 2°51.804 4.9 285 6.6 102860 85
2009-03-19 12:23 51°21.53 2°51.785 3 279 6.7 102860 86
2009-03-19 12:24 51°21.367 2°51.737 4.6 281 6.7 102860 86
2009-03-19 12:25 51°21.165 2°51.736 6.3 278 6.8 102860 86
2009-03-19 12:26 51°20.952 2°51.762 6 281 6.8 102850 86
2009-03-19 12:27 51°20.738 2°51.786 5.8 285 6.9 102850 86
2009-03-19 12:28 51°20.524 2°51.807 5.1 285 6.9 102850 85
2009-03-19 12:29 51°20.311 2°51.832 4.9 286 7 102840 85
2009-03-19 12:30 51°20.097 2°51.857 6.5 281 7 102850 85
2009-03-19 12:31 51°19.882 2°51.881 6.4 281 7.1 102840 85
2009-03-19 12:32 51°19.668 2°51.901 5.8 284 7.1 102840 85
2009-03-19 12:33 51°19.452 2°51.928 5.3 284 7.2 102840 84
2009-03-19 12:34 51°19.236 2°51.956 6.1 280 7.2 102840 84
2009-03-19 12:35 51°19.022 2°51.985 5.4 284 7.2 102840 84
2009-03-19 12:36 51°18.809 2°52.012 5.2 278 7.2 102840 84
2009-03-19 12:37 51°18.598 2°52.042 5.7 279 7.2 102840 84
2009-03-19 12:38 51°18.387 2°52.091 6.2 286 7.2 102840 85
2009-03-19 12:39 51°18.175 2°52.139 6.1 278 7.2 102840 85
2009-03-19 12:40 51°17.963 2°52.188 5.2 286 7.2 102840 85
2009-03-19 12:41 51°17.755 2°52.239 5.4 284 7.2 102840 85
2009-03-19 12:42 51°17.543 2°52.292 5.3 281 7.3 102830 84
2009-03-19 12:43 51°17.331 2°52.348 5.9 284 7.3 102830 84
2009-03-19 12:44 51°17.128 2°52.439 5.6 281 7.3 102830 84
2009-03-19 12:45 51°16.931 2°52.552 5.7 286 7.2 102820 84
2009-03-19 12:46 51°16.736 2°52.671 6.6 279 7.3 102820 84
2009-03-19 12:47 51°16.537 2°52.788 4.6 280 7.2 102820 84
2009-03-19 12:48 51°16.341 2°52.886 4.7 280 7.3 102820 85
2009-03-19 12:49 51°16.142 2°52.984 5 279 7.3 102810 85
2009-03-19 12:50 51°15.95 2°53.101 5.1 285 7.3 102810 85
2009-03-19 12:51 51°15.757 2°53.219 5.1 281 7.3 102810 85
2009-03-19 12:52 51°15.562 2°53.338 4.9 282 7.4 102800 84
2009-03-19 12:53 51°15.374 2°53.455 4.8 280 7.4 102810 85
2009-03-19 12:54 51°15.204 2°53.586 6.5 287 7.4 102800 84
2009-03-19 12:55 51°15.072 2°53.738 7 285 7.5 102790 84
2009-03-19 12:56 51°14.947 2°53.889 6.9 285 7.5 102790 85
2009-03-19 12:57 51°14.835 2°54.056 6.4 280 7.5 102790 85
2009-03-19 12:58 51°14.733 2°54.234 6.6 281 7.5 102790 85
2009-03-19 12:59 51°14.631 2°54.413 8.3 287 7.5 102790 84
2009-03-19 13:00 51°14.535 2°54.601 7.3 281 7.5 102790 85
2009-03-19 13:01 51°14.449 2°54.794 7.3 286 7.5 102780 84
2009-03-19 13:02 51°14.371 2°54.993 7.4 284 7.5 102780 85
2009-03-19 13:03 51°14.29 2°55.194 8.1 281 7.5 102780 84
2009-03-19 13:04 51°14.22 2°55.32 3.9 278 7.5 102800 85
2009-03-19 13:05 51°14.154 2°55.397 2.9 279 7.4 102800 85
2009-03-19 13:06 51°14.065 2°55.48 3.2 81 7.5 102800 86
2009-03-19 13:07 51°13.955 2°55.553 2.7 74 7.5 102800 86
2009-03-19 13:08 51°13.843 2°55.626 3.1 279 7.6 102800 85
2009-03-19 13:09 51°13.756 2°55.706 4.8 285 7.6 102810 85
2009-03-19 13:10 51°13.703 2°55.81 2.4 284 7.6 102800 85
2009-03-19 13:11 51°13.675 2°55.908 4.9 286 7.8 102800 85
2009-03-19 13:12 51°13.665 2°55.955 5.4 284 8 102800 85
2009-03-19 13:13 51°13.663 2°55.959 3.4 76 8.1 102810 84